Location: ??????????
(44.2167°N, 135.5333°E)
Time: 14:59:00
(UTC+00:00)

Sich 1 Rocket - Pass Details

Date: 15 June 2025
Orbit: 612 x 645 km, 82.5° (Epoch: 15 July)

Event Time Altitude Azimuth Distance (km) Brightness Sun altitude
Rises 16:07:23 0° 354° (N) 2,918 8.2 -20.6°
Reaches altitude 10° 16:09:38 10° 357° (N) 2,012 7.2 -20.5°
Maximum altitude 16:14:04 65° 80° (E) 698 3.8 -20.3°
Enters shadow 16:15:45 36° 149° (SSE) 1,001 4.3 -20.2°
